sat.trackr.live / text

‹ back to catalog

BUFENG 1B

NORAD 44311 · 2019-032B

PAYLOAD ACTIVE UNKNOWN

§ Identity

Operator
Country
PRC
Launch date
2019-06-05
Launch site
YSLA
Launch vehicle
Mass (kg)
RCS (m²)

External: N2YO · Heavens-Above · Gunter

§ Orbital elements

Epoch: 2026-09-20T04:12:35.741088Z

Period
94.16 min
Inclination
44.9721°
Eccentricity
0.0025694
Mean motion
15.29308766 rev/d
Perigee alt
460.3 km
Apogee alt
495.5 km
Semi-major
6,856.0 km
B*
2.5154e-4
RAAN
210.4711°
Arg perigee
160.6198°
Mean anomaly
199.5668°
Rev number
40,228

§ Raw data

BUFENG 1B1 44311U 19032B   26263.17541367  .00007054  00000+0  25154-3 0  99962 44311  44.9721 210.4711 0025694 160.6198 199.5668 15.29308766402282

JSON: /api/v1/satellites/44311 · /tle

For live sub-satellite position, see the globe view (requires WebGL).

§ Visibility from observer

Set your observer location to see the next 7 days of passes ≥ 10°. The values pass through the URL so the page stays shareable.

No JS? Fill the form by hand. The geolocation button needs JavaScript.